When you browse on this site, cookies collect data to enhance your experience and personalize the content and advertising you see.
Visit our Privacy Policy to learn more. By continuing to use the site, you agree to this use of cookies and data.
  • In Hungary
  • List of Countries
  • For 7 days
  • Water Temperature
  • Weather Map
  • News
  • Weather Widgets
  • user-avatar
    Login

    Hourly Weather Nizhnetavrichanskiy

    Today, 23 October, Wednesday

    Time Temperature Precipitation Wind Pressure Humidity
    00:00 +14°C° 0 mm 1 mps 762 mmHg 58%
    01:00 +13°C° 0 mm 1 mps 762 mmHg 60%
    02:00 +13°C° 0 mm 1 mps 762 mmHg 62%
    03:00 +13°C° 0 mm 1 mps 762 mmHg 64%
    04:00 +13°C° 0 mm 1 mps 762 mmHg 65%
    05:00 +11°C° 0 mm 0 mps 762 mmHg 67%
    06:00 +11°C° 0 mm 0 mps 762 mmHg 69%
    07:00 +13°C° 0 mm 1 mps 762 mmHg 64%
    08:00 +14°C° 0 mm 1 mps 762 mmHg 60%
    09:00 +16°C° 0 mm 1 mps 762 mmHg 56%
    10:00 +18°C° 0 mm 1 mps 762 mmHg 51%
    11:00 +19°C° 0 mm 1 mps 762 mmHg 47%
    12:00 +21°C° 0 mm 1 mps 762 mmHg 42%
    13:00 +21°C° 0 mm 1 mps 762 mmHg 42%
    14:00 +21°C° 0 mm 1 mps 761 mmHg 41%
    15:00 +19°C° 0 mm 0 mps 761 mmHg 40%
    16:00 +18°C° 0 mm 0 mps 761 mmHg 44%
    17:00 +19°C° 0 mm 1 mps 761 mmHg 48%
    18:00 +16°C° 0 mm 1 mps 761 mmHg 53%
    19:00 +16°C° 0 mm 1 mps 761 mmHg 54%
    20:00 +15°C° 0 mm 1 mps 761 mmHg 55%
    21:00 +15°C° 0 mm 1 mps 761 mmHg 56%
    22:00 +15°C° 0 mm 2 mps 761 mmHg 56%
    23:00 +14°C° 0 mm 2 mps 761 mmHg 56%

    Tomorrow, 24 October, Thursday

    Time Temperature Precipitation Wind Pressure Humidity
    00:00 +14°C° 0 mm 2 mps 761 mmHg 57%
    01:00 +14°C° 0 mm 2 mps 761 mmHg 57%
    02:00 +14°C° 0 mm 2 mps 761 mmHg 58%
    03:00 +13°C° 0 mm 1 mps 761 mmHg 59%
    04:00 +13°C° 0 mm 1 mps 761 mmHg 59%
    05:00 +13°C° 0 mm 1 mps 761 mmHg 60%
    06:00 +13°C° 0 mm 1 mps 761 mmHg 60%
    07:00 +14°C° 0 mm 2 mps 761 mmHg 58%
    08:00 +15°C° 0 mm 2 mps 761 mmHg 57%
    09:00 +16°C° 0 mm 2 mps 761 mmHg 55%
    10:00 +17°C° 0 mm 2 mps 761 mmHg 50%
    11:00 +19°C° 0 mm 3 mps 761 mmHg 45%
    12:00 +20°C° 0 mm 3 mps 760 mmHg 40%
    13:00 +20°C° 0 mm 3 mps 760 mmHg 39%
    14:00 +21°C° 0 mm 2 mps 760 mmHg 38%
    15:00 +21°C° 0 mm 2 mps 760 mmHg 38%
    16:00 +20°C° 0 mm 2 mps 760 mmHg 40%
    17:00 +18°C° 0 mm 2 mps 760 mmHg 43%
    18:00 +17°C° 0 mm 2 mps 760 mmHg 46%
    19:00 +17°C° 0 mm 2 mps 760 mmHg 46%
    20:00 +16°C° 0 mm 3 mps 760 mmHg 47%
    21:00 +16°C° 0 mm 3 mps 760 mmHg 47%
    22:00 +14°C° 0 mm 3 mps 760 mmHg 49%
    23:00 +14°C° 0 mm 3 mps 760 mmHg 51%

    Day after tomorrow, 25 October, Friday

    Time Temperature Precipitation Wind Pressure Humidity
    00:00 +14°C° 0 mm 4 mps 760 mmHg 53%
    01:00 +13°C° 0 mm 3 mps 760 mmHg 54%
    02:00 +13°C° 0 mm 3 mps 759 mmHg 55%
    03:00 +12°C° 0 mm 3 mps 759 mmHg 56%
    04:00 +12°C° 0 mm 3 mps 759 mmHg 58%
    05:00 +12°C° 0 mm 3 mps 759 mmHg 60%
    06:00 +11°C° 0 mm 3 mps 759 mmHg 62%
    07:00 +12°C° 0 mm 3 mps 760 mmHg 59%
    08:00 +13°C° 0 mm 3 mps 760 mmHg 56%
    09:00 +14°C° 0 mm 4 mps 760 mmHg 53%
    10:00 +17°C° 0 mm 4 mps 760 mmHg 50%
    11:00 +18°C° 0 mm 4 mps 760 mmHg 47%
    12:00 +20°C° 0 mm 4 mps 760 mmHg 44%
    13:00 +20°C° 0 mm 4 mps 760 mmHg 41%
    14:00 +20°C° 0 mm 4 mps 759 mmHg 39%
    15:00 +20°C° 0 mm 4 mps 759 mmHg 37%
    16:00 +18°C° 0 mm 4 mps 759 mmHg 41%
    17:00 +17°C° 0 mm 3 mps 759 mmHg 46%
    18:00 +14°C° 0 mm 3 mps 760 mmHg 51%
    19:00 +13°C° 0 mm 3 mps 760 mmHg 54%
    20:00 +13°C° 0 mm 3 mps 760 mmHg 57%
    21:00 +12°C° 0 mm 3 mps 760 mmHg 60%
    22:00 +12°C° 0 mm 3 mps 760 mmHg 60%
    23:00 +12°C° 0 mm 3 mps 760 mmHg 60%

    26 October, Saturday

    Time Temperature Precipitation Wind Pressure Humidity
    00:00 +11°C° 0 mm 3 mps 760 mmHg 60%
    01:00 +11°C° 0 mm 3 mps 760 mmHg 60%
    02:00 +11°C° 0 mm 3 mps 760 mmHg 60%
    03:00 +11°C° 0 mm 3 mps 760 mmHg 61%
    04:00 +10°C° 0 mm 3 mps 760 mmHg 62%
    05:00 +10°C° 0 mm 3 mps 760 mmHg 64%
    06:00 +10°C° 0 mm 3 mps 761 mmHg 65%
    07:00 +11°C° 0 mm 3 mps 761 mmHg 62%
    08:00 +12°C° 0 mm 3 mps 761 mmHg 58%
    09:00 +13°C° 0 mm 3 mps 761 mmHg 54%
    10:00 +16°C° 0 mm 3 mps 761 mmHg 50%
    11:00 +18°C° 0 mm 3 mps 761 mmHg 47%
    12:00 +19°C° 0 mm 3 mps 761 mmHg 43%
    13:00 +19°C° 0 mm 3 mps 761 mmHg 41%
    14:00 +20°C° 0 mm 2 mps 760 mmHg 39%
    15:00 +20°C° 0 mm 2 mps 760 mmHg 37%
    16:00 +18°C° 0 mm 2 mps 760 mmHg 40%
    17:00 +17°C° 0 mm 2 mps 760 mmHg 43%
    18:00 +15°C° 0 mm 1 mps 760 mmHg 46%
    19:00 +15°C° 0 mm 2 mps 760 mmHg 47%
    20:00 +14°C° 0 mm 2 mps 760 mmHg 49%
    21:00 +14°C° 0 mm 2 mps 760 mmHg 50%
    22:00 +13°C° 0 mm 2 mps 760 mmHg 52%
    23:00 +13°C° 0 mm 2 mps 760 mmHg 54%

    27 October, Sunday

    Time Temperature Precipitation Wind Pressure Humidity
    00:00 +13°C° 0 mm 2 mps 760 mmHg 57%
    01:00 +13°C° 0 mm 2 mps 760 mmHg 58%
    02:00 +13°C° 0 mm 1 mps 760 mmHg 60%
    03:00 +13°C° 0 mm 1 mps 760 mmHg 61%
    04:00 +13°C° 0 mm 1 mps 760 mmHg 62%
    05:00 +13°C° 0 mm 2 mps 760 mmHg 63%
    06:00 +13°C° 0 mm 2 mps 760 mmHg 64%
    07:00 +14°C° 0 mm 2 mps 760 mmHg 63%
    08:00 +15°C° 0 mm 2 mps 760 mmHg 62%
    09:00 +16°C° 0 mm 2 mps 760 mmHg 62%
    10:00 +17°C° 0 mm 2 mps 760 mmHg 58%
    11:00 +19°C° 0 mm 2 mps 760 mmHg 55%
    12:00 +20°C° 0 mm 3 mps 759 mmHg 52%
    13:00 +20°C° 0 mm 3 mps 759 mmHg 48%
    14:00 +21°C° 0 mm 3 mps 758 mmHg 44%
    15:00 +21°C° 0 mm 3 mps 758 mmHg 41%
    16:00 +19°C° 0 mm 3 mps 758 mmHg 43%
    17:00 +18°C° 0 mm 2 mps 757 mmHg 45%
    18:00 +16°C° 0 mm 2 mps 757 mmHg 46%
    19:00 +16°C° 0 mm 2 mps 757 mmHg 47%
    20:00 +15°C° 0 mm 2 mps 757 mmHg 48%
    21:00 +15°C° 0 mm 2 mps 757 mmHg 48%
    22:00 +15°C° 0 mm 2 mps 757 mmHg 55%
    23:00 +14°C° 0 mm 2 mps 757 mmHg 62%

    28 October, Monday

    Time Temperature Precipitation Wind Pressure Humidity
    00:00 +14°C° 0 mm 2 mps 757 mmHg 69%
    01:00 +13°C° 0 mm 2 mps 756 mmHg 72%
    02:00 +13°C° 0 mm 2 mps 756 mmHg 75%
    03:00 +13°C° 0 mm 2 mps 756 mmHg 78%
    04:00 +13°C° 0 mm 2 mps 756 mmHg 79%
    05:00 +12°C° 0 mm 2 mps 755 mmHg 81%
    06:00 +12°C° 0 mm 2 mps 755 mmHg 82%
    07:00 +13°C° 0 mm 2 mps 755 mmHg 80%
    08:00 +13°C° 0 mm 3 mps 755 mmHg 78%
    09:00 +16°C° 0 mm 3 mps 755 mmHg 75%
    10:00 +17°C° 0 mm 3 mps 755 mmHg 67%
    11:00 +19°C° 0 mm 4 mps 755 mmHg 59%
    12:00 +20°C° 0 mm 4 mps 754 mmHg 50%
    13:00 +20°C° 0 mm 4 mps 754 mmHg 47%
    14:00 +21°C° 0 mm 5 mps 753 mmHg 44%
    15:00 +21°C° 0 mm 5 mps 753 mmHg 41%
    16:00 +19°C° 0 mm 4 mps 753 mmHg 45%
    17:00 +18°C° 0 mm 4 mps 753 mmHg 49%
    18:00 +16°C° 0 mm 3 mps 753 mmHg 52%
    19:00 +16°C° 0 mm 3 mps 753 mmHg 55%
    20:00 +14°C° 0 mm 3 mps 753 mmHg 57%
    21:00 +14°C° 0 mm 3 mps 753 mmHg 59%
    22:00 +14°C° 0 mm 3 mps 753 mmHg 61%
    23:00 +13°C° 0 mm 3 mps 753 mmHg 63%

    29 October, Tuesday

    Time Temperature Precipitation Wind Pressure Humidity
    00:00 +13°C° 0 mm 3 mps 753 mmHg 65%
    01:00 +13°C° 0 mm 3 mps 752 mmHg 68%
    02:00 +12°C° 0 mm 3 mps 752 mmHg 71%
    03:00 +12°C° 0 mm 3 mps 752 mmHg 74%
    04:00 +12°C° 0.1 mm 3 mps 752 mmHg 78%
    05:00 +12°C° 0.1 mm 3 mps 752 mmHg 82%
    06:00 +12°C° 0.1 mm 4 mps 752 mmHg 85%
    07:00 +12°C° 0.6 mm 4 mps 752 mmHg 87%
    08:00 +12°C° 0.6 mm 5 mps 752 mmHg 88%
    09:00 +12°C° 0.6 mm 5 mps 752 mmHg 89%
    10:00 +10°C° 0.4 mm 5 mps 752 mmHg 87%
    11:00 +10°C° 0.4 mm 5 mps 752 mmHg 85%
    12:00 +10°C° 0.4 mm 4 mps 752 mmHg 82%
    13:00 +10°C° 0.5 mm 4 mps 752 mmHg 81%
    14:00 +8°C° 0.5 mm 4 mps 752 mmHg 80%
    15:00 +8°C° 0.5 mm 4 mps 752 mmHg 78%
    16:00 +8°C° 0 mm 4 mps 752 mmHg 78%
    17:00 +8°C° 0 mm 4 mps 753 mmHg 78%
    18:00 +7°C° 0 mm 4 mps 753 mmHg 78%
    19:00 +7°C° 0 mm 4 mps 753 mmHg 75%
    20:00 +6°C° 0 mm 4 mps 753 mmHg 73%
    21:00 +7°C° 0 mm 3 mps 754 mmHg 70%
    22:00 +7°C° 0 mm 3 mps 754 mmHg 69%
    23:00 +5°C° 0 mm 4 mps 754 mmHg 68%
    Show more